Location: Barcelona
(41.3830°N, 2.1830°E)
Time: 01:20:03
(UTC+02:00)

ISS - Pass Details

Date: 15 July 2019
Orbit: 409 x 418 km, 51.6° (Epoch: 23 July)

Event Time Altitude Azimuth Distance (km) Brightness Sun altitude
Exits shadow 00:47:31 17° 39° (NE) 1,136 -1.2 -25.0°
Drops below altitude 10° 00:48:26 10° 45° (NE) 1,483 -0.7 -25.0°
Sets 00:50:34 0° 52° (NE) 2,346 0.3 -25.1°
